Regional Weather Roundup
Issued by NWS

Home | Current Version | Previous Version | Text Only | Print | Product List | Glossary Off
Versions: 1 2 3 4 5 6 7 8 9 10 11 12 13 14 15 16 17 18 19 20 21 22 23 24 25 26 27 28 29 30 31 32 33 34 35 36 37 38 39 40 41 42 43 44 45 46 47 48 49 50

000
ASUS43 KDTX 221310
RWRMI
MICHIGAN HOURLY REGIONAL WEATHER ROUNDUP
NATIONAL WEATHER SERVICE DETROIT/PONTIAC MI
900 AM EDT THU JUN 22 2017

NOTE: "FAIR" INDICATES FEW OR NO CLOUDS BELOW 12,000 FEET WITH NO
SIGNIFICANT WEATHER AND/OR OBSTRUCTION TO VISIBILITY.

MIZ047>049-052>055-059>063-066>070-074>076-081>083-221400-
SOUTHEAST LOWER MICHIGAN

CITY           SKY/WX    TMP DP  RH WIND       PRES   REMARKS
ADRIAN         CLOUDY    69  60  73 VRB3      29.94R
ALMA           CLOUDY    64  58  79 S3        29.89R
ANN ARBOR      CLOUDY    66  61  84 SE3       29.92S
BAD AXE        RAIN      59  57  91 S14G20    29.89F
CARO           LGT RAIN  60  59  97 SE6       29.88F
DETROIT CITY   PTSUNNY   71  64  78 S10G17    29.91F
DETROIT        LGT RAIN  68  64  87 S7        29.92S
FLINT          PTSUNNY   69  58  67 S9G21     29.88S
GROSSE ILE     MOSUNNY   69  64  82 S8        29.91F
HILLSDALE      CLOUDY    68  61  77 SW7       29.94R
HOWELL         CLOUDY    70  57  63 S7        29.91S

CITY           SKY/WX    TMP DP  RH WIND       PRES   REMARKS
JACKSON        CLOUDY    73  63  70 W7        29.91R
LAMBERTVILLE   CLOUDY    73  66  78 SW9G17    29.92S
LANSING        CLOUDY    73  59  61 SW9       29.89S
LAPEER         NOT AVBL
MASON          CLOUDY    69  59  71 SE3       29.91R
MONROE         CLOUDY    71  61  71 SW6       29.92S
MT. CLEMENS    PTSUNNY   69  62  79 S13       29.88F
PONTIAC        CLOUDY    69  60  73 S10       29.90S
PORT HOPE        N/A     62  57  83 S10G17    29.89R
PORT HURON     CLOUDY    64  55  72 S6        29.92S
TRI CITIES     LGT RAIN  62  61  96 CALM      29.88R
MIDLAND        RAIN      61  59  94 NW5       29.90R
TROY           MOSUNNY   71  60  67 S8        29.93S
SAGINAW HB     LGT RAIN  63  55  77 SE9       29.86F
$$
MIZ043>046-050>051-056>058-064>065-071>073-077>080-221400-
SOUTHWEST LOWER MICHIGAN

CITY           SKY/WX    TMP DP  RH WIND       PRES   REMARKS
BATTLE CREEK   LGT RAIN  73  66  78 SW12      29.92R
BENTON HARBOR  CLOUDY    78  64  61 SW13      29.90R
BIG RAPIDS     RAIN      65  62  90 SW14G20   29.83F
COLDWATER      CLOUDY    73  67  79 SW3       29.92R
FREMONT        DRIZZLE   65  64  96 SE3       29.85F
HOLLAND        CLOUDY    76  67  73 SW15G24   29.88R
GRAND RAPIDS   CLOUDY    75  67  76 SW13      29.87R
IONIA          FAIR      73  62  69 W6        29.88R
KALAMAZOO      LGT RAIN  74  65  73 SW6       29.91R
LUDINGTON      RAIN      67  66  96 S15       29.80F
MARSHALL       CLOUDY    74  66  76 SW7       29.90S
MOUNT PLEASANT RAIN      61  60  95 SE8       29.87R
MUSKEGON       CLOUDY    73  65  75 SW14      29.86R
SOUTH HAVEN    CLOUDY    78  66  67 SW12G22   29.89R
$$
MIZ016>042-221400-
NORTHERN LOWER MICHIGAN

CITY           SKY/WX    TMP DP  RH WIND       PRES   REMARKS
ALPENA         LGT RAIN  60  60 100 SE5       29.84F
BEAVER ISLAND  CLOUDY    60  59  97 SE7       29.76F
BELLAIRE       CLOUDY    62  59  91 CALM      29.79F
CADILLAC       CLOUDY    63  62  96 SW10      29.83R
CHARLEVOIX     CLOUDY    62  62 100 S7        29.80S
FRANKFORT      CLOUDY    67  63  86 S12G20    29.77S
GAYLORD        LGT RAIN  61  57  87 S12       29.82R
GRAYLING       CLOUDY    59  58  98 SE6       29.84F
HARBOR SPRINGS DRIZZLE   60  60 100 S5        29.78F
HOUGHTON LAKE  LGT RAIN  61  59  93 S7        29.85F
MANISTEE       CLOUDY    66  64  94 VRB3      29.79S
OSCODA         HVY RAIN  62  60  93 S13       29.87F
PELLSTON       LGT RAIN  59  57  93 SE7       29.78F
ROGERS CITY    RAIN      59  57  92 S14       29.81F
TRAVERSE CITY  CLOUDY    66  62  87 CALM      29.77F
$$
MIZ007>008-015-221400-
EASTERN UPPER MICHIGAN

CITY           SKY/WX    TMP DP  RH WIND       PRES   REMARKS
KINROSS        CLOUDY    61  57  87 SE13      29.78S
MACKINAC ISLAN CLOUDY    61  55  82 S10G18    29.78F
NEWBERRY       LGT RAIN  59  57  96 S12       29.75F
S. S. MARIE    CLOUDY    60  57  89 SE8       29.78S
MUNISING         N/A     62  58  86 S7        29.69F
$$
MIZ004>006-011>014-085-221400-
CENTRAL UPPER MICHIGAN

CITY           SKY/WX    TMP DP  RH WIND       PRES   REMARKS
MANISTIQUE     CLOUDY    58  55  89 S6        29.74F FOG
ESCANABA       CLOUDY    65  62  90 S5        29.72F
SAWYER-GWINN   MOSUNNY   63  55  77 S14       29.71F
$$
MIZ001>003-009>011-084-221400-
WESTERN UPPER MICHIGAN

CITY           SKY/WX    TMP DP  RH WIND       PRES   REMARKS
IRON MOUNTAIN  CLOUDY    64  55  72 SE5       29.70S
HOUGHTON       PTSUNNY   68  59  73 W12       29.65R
COPPER HARBOR    N/A     60  54  80 SW10G18   29.64S
IRONWOOD       CLOUDY    67  61  81 SW9       29.71R
$$

ABBREVIATIONS USED IN REMARKS
   TC - TEMPERATURE IN CELSIUS
  WCI - WIND CHILL INDEX
   HX - HEAT INDEX
  VSB - VISIBILITY





USA.gov is the U.S. government's official web portal to all federal, state and local government web resources and services.